Guthrie, OK

7:38 AM CST on November 23, 2017 (GMT -0600)
Guthrie Municipal

Weather History for KGOK - January, 2013

Change the Weather History Date:

Tuesday, January 15, 2013

  Actual Average Record
Temperature  
Mean Temperature 28 °F -  
Max Temperature 36 °F 50 °F 73 °F (1952)
Min Temperature 19 °F 25 °F 1 °F (1972)
Degree Days  
Heating Degree Days 38    
Moisture  
Dew Point 14 °F    
Average Humidity 61    
Maximum Humidity 78    
Minimum Humidity 36    
Precipitation  
Precipitation 0.00 in - - ()
Sea Level Pressure  
Sea Level Pressure 30.30 in    
Wind  
Wind Speed 4 mph (NNE)    
Max Wind Speed 7 mph    
Max Gust Speed -    
Visibility 10 miles    
Events      
Averages and records for this station are not official NWS values.
T = Trace of Precipitation, MM = Missing Value Source: NWS Daily Summary

Daily Weather History Graph

Daily Weather History Graph

Search for Another Location

Airport or City:

Trip Planner

Search our weather history database for the weather conditions in past years. The results will help you decide how hot, cold, wet, or windy it might be!

Date:

Astronomy

Jan. 15, 2013 Rise Set
Actual Time 7:39 AM CST 5:39 PM CST
Civil Twilight 7:11 AM CST 6:07 PM CST
Nautical Twilight 6:39 AM CST 6:38 PM CST
Astronomical Twilight 6:09 AM CST 7:09 PM CST
Moon 9:55 AM CST (1/15) 10:19 PM CST (1/15)
Length of Visible Light 10h 56m
Length of Day
10h 00m
Waxing Crescent, 19% of the Moon is Illuminated
Jan 15
Waxing Crescent
Jan 18
First Quarter
Jan 26
Full
Feb 3
Last Quarter
Feb 10
New

Hourly Weather History & Observations

Time (CST) Temp. Windchill Dew Point Humidity Pressure Visibility Wind Dir Wind Speed Gust Speed Precip Events Conditions
12:53 AM 24.1 °F 18.2 °F 15.1 °F 69% 30.35 in 10.0 mi ENE 4.6 mph - N/A   Mostly Cloudy
1:53 AM 21.9 °F - 14.0 °F 72% 30.34 in 10.0 mi Calm Calm - N/A   Partly Cloudy
2:53 AM 19.9 °F 14.9 °F 14.0 °F 78% 30.34 in 10.0 mi North 3.5 mph - N/A   Clear
3:53 AM 19.9 °F 12.1 °F 14.0 °F 78% 30.34 in 10.0 mi NE 5.8 mph - N/A   Clear
4:53 AM 21.0 °F 16.2 °F 15.1 °F 78% 30.31 in 10.0 mi NE 3.5 mph - N/A   Clear
5:53 AM 21.9 °F 17.2 °F 15.1 °F 75% 30.32 in 10.0 mi NE 3.5 mph - N/A   Clear
6:53 AM 21.9 °F 15.7 °F 16.0 °F 78% 30.31 in 10.0 mi North 4.6 mph - N/A   Partly Cloudy
7:53 AM 21.9 °F - 15.1 °F 75% 30.33 in 9.0 mi Calm Calm - N/A   Mostly Cloudy
8:53 AM 24.1 °F 18.2 °F 17.1 °F 75% 30.35 in 8.0 mi Variable 4.6 mph - N/A   Overcast
9:53 AM 26.1 °F 20.5 °F 17.1 °F 69% 30.35 in 8.0 mi NNE 4.6 mph - N/A   Overcast
10:53 AM 28.0 °F 20.8 °F 18.0 °F 66% 30.33 in 9.0 mi Variable 6.9 mph - N/A   Overcast
11:53 AM 32.0 °F 26.4 °F 17.1 °F 54% 30.30 in 10.0 mi North 5.8 mph - N/A   Overcast
12:53 PM 34.0 °F 28.0 °F 17.1 °F 50% 30.27 in 10.0 mi NNE 6.9 mph - N/A   Overcast
1:53 PM 35.1 °F 29.3 °F 12.9 °F 40% 30.25 in 10.0 mi Variable 6.9 mph - N/A   Overcast
2:53 PM 35.1 °F 29.3 °F 12.0 °F 39% 30.25 in 10.0 mi NNW 6.9 mph - N/A   Overcast
3:53 PM 36.0 °F 32.1 °F 10.9 °F 36% 30.26 in 10.0 mi Variable 4.6 mph - N/A   Overcast
4:53 PM 36.0 °F - 10.9 °F 36% 30.27 in 10.0 mi Calm Calm - N/A   Overcast
5:53 PM 33.1 °F - 10.9 °F 40% 30.28 in 10.0 mi Calm Calm - N/A   Partly Cloudy
6:53 PM 30.9 °F - 10.9 °F 43% 30.28 in 10.0 mi Calm Calm - N/A   Clear
7:53 PM 28.9 °F 25.2 °F 10.9 °F 47% 30.28 in 10.0 mi NW 3.5 mph - N/A   Clear
8:53 PM 27.0 °F - 12.0 °F 53% 30.29 in 10.0 mi Calm Calm - N/A   Clear
9:53 PM 21.0 °F - 12.9 °F 71% 30.29 in 10.0 mi Calm Calm - N/A   Clear
10:53 PM 19.9 °F 14.9 °F 12.0 °F 71% 30.28 in 10.0 mi SSW 3.5 mph - N/A   Clear